Belmar-Farmingdale, NJ

1:30 AM EDT on August 22, 2019 (GMT -0400)
Allaire

Weather History for KBLM - July, 2019

Change the Weather History Date:

Monday, July 22, 2019

  Actual Average Record
Temperature  
Mean Temperature 81 °F -  
Max Temperature 93 °F 79 °F 102 °F (2011)
Min Temperature 71 °F 63 °F 60 °F (1996)
Cooling Degree Days 16    
Growing Degree Days 31 (Base 50)    
Moisture  
Dew Point 73 °F    
Average Humidity 84    
Maximum Humidity 100    
Minimum Humidity 58    
Precipitation  
Precipitation 0.18 in - - ()
Sea Level Pressure  
Sea Level Pressure 29.80 in    
Wind  
Wind Speed 7 mph (SW)    
Max Wind Speed 28 mph    
Max Gust Speed 53 mph    
Visibility 9 miles    
Events Rain , Thunderstorm    
Averages and records for this station are not official NWS values.
T = Trace of Precipitation, MM = Missing Value Source: NWS Daily Summary

Daily Weather History Graph

Daily Weather History Graph

Search for Another Location

Airport or City:

Astronomy

Jul. 22, 2019 Rise Set
Actual Time 5:45 AM EDT 8:20 PM EDT
Civil Twilight 5:13 AM EDT 8:51 PM EDT
Nautical Twilight 4:34 AM EDT 9:30 PM EDT
Astronomical Twilight 3:50 AM EDT 10:14 PM EDT
Moon 11:39 PM EDT 10:59 AM EDT
Length of Visible Light 15h 37m
Length of Day
14h 34m
Waning Gibbous, 72% of the Moon is Illuminated
Jul 22
Waning Gibbous
Jul 24
Last Quarter
Jul 31
New
Aug 7
First Quarter
Aug 15
Full

Hourly Weather History & Observations

Time (EDT) Temp. Heat Index Dew Point Humidity Pressure Visibility Wind Dir Wind Speed Gust Speed Precip Events Conditions
12:32 AM 77.0 °F - 73.4 °F 89% 29.88 in 10.0 mi NNW 8.1 mph - 0.04 in   Partly Cloudy
12:56 AM 75.9 °F - 73.9 °F 94% 29.91 in 10.0 mi West 9.2 mph - 0.04 in Thunderstorm Thunderstorm
1:14 AM 77.0 °F - 73.4 °F 89% 29.88 in 9.0 mi NNW 11.5 mph - 0.07 in Rain Light Rain
1:56 AM 75.0 °F - 73.0 °F 94% 29.87 in 10.0 mi Calm Calm - 0.07 in   Partly Cloudy
2:56 AM 75.0 °F - 73.0 °F 94% 29.86 in 10.0 mi Calm Calm - N/A   Clear
3:51 AM 75.2 °F - 73.4 °F 94% 29.86 in 10.0 mi WNW 5.8 mph - N/A Thunderstorm Clear
3:56 AM 75.0 °F - 73.0 °F 94% 29.86 in 10.0 mi WNW 4.6 mph - N/A Thunderstorm Clear
4:02 AM 75.2 °F - 71.6 °F 89% 29.86 in 10.0 mi West 3.5 mph - N/A Thunderstorm Clear
4:23 AM 73.4 °F - 73.4 °F 100% 29.86 in 10.0 mi South 3.5 mph - N/A   Clear
4:56 AM 73.9 °F - 72.0 °F 93% 29.85 in 10.0 mi Calm Calm - N/A   Partly Cloudy
5:56 AM 73.0 °F - 72.0 °F 96% 29.86 in 10.0 mi Calm Calm - N/A   Mostly Cloudy
6:56 AM 75.0 °F - 73.0 °F 94% 29.87 in 10.0 mi West 5.8 mph - N/A   Clear
7:56 AM 79.0 °F - 73.9 °F 84% 29.87 in 10.0 mi West 3.5 mph - N/A   Clear
8:56 AM 82.0 °F 87.4 °F 73.0 °F 74% 29.88 in 10.0 mi Calm Calm - N/A   Clear
9:56 AM 82.9 °F 88.8 °F 73.0 °F 72% 29.86 in 10.0 mi Variable 6.9 mph - N/A   Clear
10:56 AM 87.1 °F 95.4 °F 73.9 °F 65% 29.84 in 10.0 mi Variable 3.5 mph - N/A   Clear
11:53 AM 86.0 °F 93.4 °F 73.4 °F 66% 29.83 in 10.0 mi SE 8.1 mph - N/A   Mostly Cloudy
11:56 AM 86.0 °F 93.8 °F 73.9 °F 67% 29.83 in 10.0 mi SSE 6.9 mph - N/A   Mostly Cloudy
12:38 PM 86.0 °F 95.1 °F 75.2 °F 70% 29.82 in 10.0 mi ESE 10.4 mph - N/A   Mostly Cloudy
12:56 PM 86.0 °F 96.0 °F 75.9 °F 72% 29.81 in 10.0 mi ESE 12.7 mph - N/A   Partly Cloudy
1:56 PM 86.0 °F 96.0 °F 75.9 °F 72% 29.79 in 10.0 mi SE 9.2 mph - N/A   Partly Cloudy
2:56 PM 86.0 °F 96.9 °F 77.0 °F 74% 29.76 in 10.0 mi ESE 10.4 mph - N/A   Scattered Clouds
3:56 PM 91.0 °F 102.9 °F 75.9 °F 61% 29.73 in 10.0 mi South 5.8 mph - N/A   Partly Cloudy
4:33 PM 91.4 °F 102.5 °F 75.2 °F 59% 29.71 in 10.0 mi SSW 8.1 mph - N/A Thunderstorm Partly Cloudy
4:53 PM 91.4 °F 102.5 °F 75.2 °F 59% 29.70 in 10.0 mi SW 9.2 mph - N/A   Mostly Cloudy
4:56 PM 91.9 °F 103.2 °F 75.0 °F 58% 29.69 in 10.0 mi SW 9.2 mph - N/A   Mostly Cloudy
5:56 PM 91.0 °F 102.9 °F 75.9 °F 61% 29.68 in 10.0 mi South 13.8 mph - N/A   Mostly Cloudy
6:28 PM 80.6 °F 83.9 °F 69.8 °F 70% 29.76 in 0.5 mi WSW 27.6 mph 52.9 mph N/A Rain , Thunderstorm Light Rain
6:33 PM 73.4 °F - 69.8 °F 88% 29.75 in 1.0 mi WSW 23.0 mph 47.2 mph N/A Rain , Thunderstorm Rain
6:37 PM 71.6 °F - 69.8 °F 94% 29.74 in 2.0 mi WSW 20.7 mph 34.5 mph N/A Rain , Thunderstorm Heavy Thunderstorms and Rain
6:44 PM 71.6 °F - 69.8 °F 94% 29.74 in 6.0 mi WSW 18.4 mph 33.4 mph N/A Rain , Thunderstorm Light Thunderstorms and Rain
6:48 PM 71.6 °F - 69.8 °F 94% 29.74 in 10.0 mi WSW 16.1 mph 31.1 mph N/A Rain , Thunderstorm Light Thunderstorms and Rain
6:56 PM 72.0 °F - 69.1 °F 91% 29.74 in 10.0 mi WSW 11.5 mph 20.7 mph N/A Rain Light Rain
7:56 PM 73.9 °F - 71.1 °F 91% 29.77 in 10.0 mi NW 9.2 mph - 0.00 in   Scattered Clouds
8:10 PM 73.4 °F - 71.6 °F 94% 29.80 in 10.0 mi SSW 10.4 mph - N/A Thunderstorm Mostly Cloudy
8:42 PM 73.4 °F - 71.6 °F 94% 29.79 in 10.0 mi Calm Calm - 0.03 in   Overcast
8:56 PM 73.0 °F - 71.1 °F 93% 29.78 in 10.0 mi WSW 3.5 mph - 0.03 in   Overcast
9:14 PM 73.4 °F - 71.6 °F 94% 29.80 in 10.0 mi Calm Calm - N/A Thunderstorm Overcast
9:25 PM 73.4 °F - 71.6 °F 94% 29.80 in 10.0 mi SSW 3.5 mph - N/A   Overcast
9:56 PM 72.0 °F - 71.1 °F 97% 29.79 in 7.0 mi SSW 5.8 mph - 0.03 in Rain Light Rain
10:56 PM 72.0 °F - 71.1 °F 97% 29.78 in 10.0 mi South 3.5 mph - 0.01 in   Partly Cloudy
11:56 PM 72.0 °F - 71.1 °F 97% 29.79 in 10.0 mi WSW 3.5 mph - N/A   Mostly Cloudy